Location: Newark
(35.5300°N, 14.3000°E)
Time: 07:10:50
(UTC+00:00)

Vanguard 2 Rocket - Visible Passes

Search period start: 15 November 2019 00:00
Search period end: 25 November 2019 00:00
Orbit: 554 x 3326 km, 32.9° (Epoch: 13 November)

Date Brightness Start Highest point End Pass type
(mag) Time Alt. Az. Time Alt. Az. Time Alt. Az.
15 Nov 8.2 02:21:24 46° ESE 02:21:24 46° ESE 02:28:17 10° E visible
15 Nov 8.2 04:27:13 18° W 04:33:09 68° S 04:46:29 10° ESE visible
16 Nov 9.6 01:25:19 16° E 01:25:19 16° E 01:26:53 10° E visible
16 Nov 7.4 03:31:08 51° WSW 03:33:05 72° S 03:44:17 10° ESE visible
17 Nov 7.8 02:35:04 53° ESE 02:35:04 53° ESE 02:42:27 10° E visible
17 Nov 8.4 04:40:53 14° W 04:47:20 57° SSW 05:00:09 10° ESE visible
18 Nov 9.4 01:39:00 18° E 01:39:00 18° E 01:41:06 10° E visible
18 Nov 7.6 03:44:49 41° WSW 03:47:18 63° S 03:58:14 10° ESE visible
19 Nov 7.6 02:48:45 57° SE 02:48:45 57° SE 02:56:33 10° ESE visible
19 Nov 8.7 04:54:35 10° W 05:01:32 43° SSW 05:13:24 10° SE visible
20 Nov 9.2 01:52:42 21° E 01:52:42 21° E 01:55:17 10° E visible
20 Nov 7.9 03:58:31 31° WSW 04:01:30 50° SSW 04:11:52 10° SE visible
21 Nov 7.5 03:02:28 54° SSE 03:02:28 54° SSE 03:10:29 10° ESE visible
21 Nov 9.0 05:09:19 10° W 05:15:47 31° SSW 05:26:02 10° SSE visible
22 Nov 9.0 02:06:26 23° ESE 02:06:26 23° ESE 02:09:23 10° ESE visible
22 Nov 8.2 04:12:15 22° WSW 04:15:45 36° SSW 04:25:04 10° SE visible
23 Nov 7.7 03:16:14 42° S 03:16:14 42° S 03:24:05 10° SE visible
24 Nov 8.9 02:20:13 23° SE 02:20:13 23° SE 02:23:17 10° ESE visible
24 Nov 8.7 04:26:02 14° WSW 04:30:04 24° SSW 04:37:32 10° SSE visible
